This is the latest recevied weather packets stored in our database for station/object KI8L. If no packets are shown the sender has not sent any weather packets the latest 10 day(s).
| Time | Temp. | Humidity | Pressure | Rain* | Wind** | Luminosity | Snow |
|---|---|---|---|---|---|---|---|
| 1777790903 | -0.56° C | 99% | 1018.7 hPa | 0 mm | - | 0 W/m² | - |
| 1777790601 | -0.56° C | 99% | 1018.9 hPa | 0 mm | - | 0 W/m² | - |
| 1777790297 | -0.56° C | 99% | 1018.9 hPa | 0 mm | - | 0 W/m² | - |
| 1777789996 | 0° C | 99% | 1018.9 hPa | 0 mm | - | 0 W/m² | - |
| 1777789694 | -0.56° C | 99% | 1019.1 hPa | 0 mm | - | 0 W/m² | - |
| 1777789393 | -0.56° C | 99% | 1018.9 hPa | 0 mm | - | 0 W/m² | - |
| 1777789090 | 0° C | 99% | 1019 hPa | 0 mm | - | 0 W/m² | - |
| 1777788787 | 0° C | 99% | 1019.1 hPa | 0 mm | - | 0 W/m² | - |
| 1777788483 | 0° C | 99% | 1019 hPa | 0 mm | - | 0 W/m² | - |
| 1777788182 | 0.56° C | 99% | 1018.9 hPa | 0 mm | - | 0 W/m² | - |
| 1777787877 | 0.56° C | 99% | 1019.1 hPa | 0 mm | - | 0 W/m² | - |
| 1777787574 | 0.56° C | 99% | 1019.2 hPa | 0 mm | - | 0 W/m² | - |
| 1777787269 | 0.56° C | 99% | 1019.3 hPa | 0 mm | - | 0 W/m² | - |
| 1777786966 | 0.56° C | 99% | 1019.2 hPa | 0 mm | - | 0 W/m² | - |
| 1777786664 | 0.56° C | 99% | 1019.2 hPa | 0 mm | - | 0 W/m² | - |
| 1777786363 | 1.11° C | 99% | 1019.1 hPa | 0 mm | - | 0 W/m² | - |
| 1777786058 | 1.11° C | 99% | 1019.2 hPa | 0 mm | - | 0 W/m² | - |
| 1777785755 | 1.11° C | 99% | 1019 hPa | 0 mm | - | 0 W/m² | - |
| 1777785450 | 1.11° C | 99% | 1019.3 hPa | 0 mm | - | 0 W/m² | - |
| 1777785148 | 1.67° C | 99% | 1019.2 hPa | 0 mm | - | 0 W/m² | - |
| 1777784844 | 1.67° C | 98% | 1019.1 hPa | 0 mm | - | 0 W/m² | - |
| 1777784541 | 1.67° C | 98% | 1019.1 hPa | 0 mm | - | 0 W/m² | - |
| 1777784239 | 2.22° C | 98% | 1019 hPa | 0 mm | - | 0 W/m² | - |
| 1777783936 | 2.78° C | 98% | 1019.3 hPa | 0 mm | - | 0 W/m² | - |
| 1777783632 | 2.78° C | 98% | 1019.2 hPa | 0 mm | - | 0 W/m² | - |
* Rain latest hour (hover to see other rain measurements)
** Current wind speed in m/s (hover to see current wind gust speed)